Time,TemperatureF,DewpointF,PressureIn,WindDirection,WindDirectionDegrees,WindSpeedMPH,WindSpeedGustMPH,Humidity,HourlyPrecipIn,Conditions,Clouds,dailyrainin,SolarRadiationWatts/m^2,SoftwareType,DateUTC
2013-05-06 00:00:00,47.0,45.1,30.00,NNW,335,0.0,0.0,93,0.00,,,0.00,0,Wunderground v.1.15,2013-05-06 05:00:00,
2013-05-06 00:05:00,47.0,45.1,30.00,NNW,335,0.0,0.0,93,0.00,,,0.00,0,Wunderground v.1.15,2013-05-06 05:05:00,
2013-05-06 00:10:00,47.0,45.1,30.00,NNW,335,0.0,0.0,93,0.00,,,0.00,0,Wunderground v.1.15,2013-05-06 05:10:00,
2013-05-06 00:15:00,46.9,45.0,30.00,NNW,335,0.0,0.0,93,0.00,,,0.00,0,Wunderground v.1.15,2013-05-06 05:15:00,
2013-05-06 00:21:00,46.9,44.7,30.00,NNW,335,0.0,0.0,92,0.00,,,0.00,0,Wunderground v.1.15,2013-05-06 05:21:00,
2013-05-06 00:26:00,46.8,44.6,29.99,NNW,335,0.0,0.0,92,0.00,,,0.00,0,Wunderground v.1.15,2013-05-06 05:26:00,
2013-05-06 00:31:00,46.8,44.6,29.99,NNW,335,0.0,0.0,92,0.00,,,0.00,0,Wunderground v.1.15,2013-05-06 05:31:00,
2013-05-06 00:37:00,46.8,44.6,29.99,NNW,335,0.0,0.0,92,0.00,,,0.00,0,Wunderground v.1.15,2013-05-06 05:37:00,
2013-05-06 00:42:00,46.7,44.5,29.99,NNW,335,0.0,0.0,92,0.00,,,0.00,0,Wunderground v.1.15,2013-05-06 05:42:00,
2013-05-06 00:47:00,46.5,44.3,29.99,NNW,335,0.0,0.0,92,0.00,,,0.00,0,Wunderground v.1.15,2013-05-06 05:47:00,
2013-05-06 00:52:00,46.3,44.4,29.99,NNW,335,0.0,0.0,93,0.00,,,0.00,0,Wunderground v.1.15,2013-05-06 05:52:00,
2013-05-06 00:58:00,46.1,44.2,29.99,NNW,335,0.0,0.0,93,0.00,,,0.00,0,Wunderground v.1.15,2013-05-06 05:58:00,
2013-05-06 01:03:00,46.0,44.1,29.99,NNW,335,0.0,0.0,93,0.00,,,0.00,0,Wunderground v.1.15,2013-05-06 06:03:00,
2013-05-06 01:09:00,45.8,43.9,29.98,NNW,335,0.0,0.0,93,0.00,,,0.00,0,Wunderground v.1.15,2013-05-06 06:09:00,
2013-05-06 01:14:00,45.8,44.2,29.98,NNW,335,0.0,0.0,94,0.00,,,0.00,0,Wunderground v.1.15,2013-05-06 06:14:00,
2013-05-06 01:19:00,45.7,44.1,29.98,NNW,335,0.0,0.0,94,0.00,,,0.00,0,Wunderground v.1.15,2013-05-06 06:19:00,
2013-05-06 01:24:00,45.7,44.1,29.98,NNW,335,0.0,0.0,94,0.00,,,0.00,0,Wunderground v.1.15,2013-05-06 06:24:00,
2013-05-06 01:30:00,45.8,44.2,29.98,NNW,335,0.0,0.0,94,0.00,,,0.00,0,Wunderground v.1.15,2013-05-06 06:30:00,
2013-05-06 01:35:00,45.8,44.2,29.97,NNW,335,0.0,0.0,94,0.00,,,0.00,0,Wunderground v.1.15,2013-05-06 06:35:00,
2013-05-06 01:40:00,45.7,44.1,29.97,NNW,335,0.0,0.0,94,0.00,,,0.00,0,Wunderground v.1.15,2013-05-06 06:40:00,
2013-05-06 01:45:00,45.7,43.8,29.97,NNW,335,0.0,0.0,93,0.00,,,0.00,0,Wunderground v.1.15,2013-05-06 06:45:00,
2013-05-06 01:51:00,45.6,43.7,29.97,NNW,335,0.0,0.0,93,0.00,,,0.00,0,Wunderground v.1.15,2013-05-06 06:51:00,
2013-05-06 01:57:00,45.6,43.7,29.97,NNW,335,0.0,0.0,93,0.00,,,0.00,0,Wunderground v.1.15,2013-05-06 06:57:00,
2013-05-06 02:02:00,45.5,43.6,29.97,NNW,335,0.0,0.0,93,0.00,,,0.00,0,Wunderground v.1.15,2013-05-06 07:02:00,
2013-05-06 02:07:00,45.4,43.5,29.97,NNW,335,0.0,0.0,93,0.00,,,0.00,0,Wunderground v.1.15,2013-05-06 07:07:00,
2013-05-06 02:13:00,45.4,43.5,29.97,NNW,335,0.0,0.0,93,0.00,,,0.00,0,Wunderground v.1.15,2013-05-06 07:13:00,
2013-05-06 02:18:00,45.2,43.6,29.97,NNW,335,0.0,0.0,94,0.00,,,0.00,0,Wunderground v.1.15,2013-05-06 07:18:00,
2013-05-06 02:23:00,45.2,43.6,29.97,NNW,335,0.0,0.0,94,0.00,,,0.00,0,Wunderground v.1.15,2013-05-06 07:23:00,
2013-05-06 02:29:00,45.0,43.4,29.97,NNW,335,0.0,0.0,94,0.00,,,0.00,0,Wunderground v.1.15,2013-05-06 07:29:00,
2013-05-06 02:34:00,45.0,43.4,29.96,NNW,335,0.0,0.0,94,0.00,,,0.00,0,Wunderground v.1.15,2013-05-06 07:34:00,
2013-05-06 02:39:00,45.0,43.4,29.96,NNW,335,0.0,0.0,94,0.00,,,0.00,0,Wunderground v.1.15,2013-05-06 07:39:00,
2013-05-06 02:44:00,44.9,43.3,29.96,NNW,335,0.0,0.0,94,0.00,,,0.00,0,Wunderground v.1.15,2013-05-06 07:44:00,
2013-05-06 02:50:00,45.0,43.4,29.96,NNW,335,0.0,0.0,94,0.00,,,0.00,0,Wunderground v.1.15,2013-05-06 07:50:00,
2013-05-06 02:55:00,45.0,43.4,29.96,NNW,335,0.0,0.0,94,0.00,,,0.00,0,Wunderground v.1.15,2013-05-06 07:55:00,
2013-05-06 03:00:00,45.0,43.4,29.96,NNW,334,0.0,2.0,94,0.00,,,0.00,0,Wunderground v.1.15,2013-05-06 08:00:00,
2013-05-06 03:05:00,45.0,43.4,29.96,NNW,334,0.0,2.0,94,0.00,,,0.00,0,Wunderground v.1.15,2013-05-06 08:05:00,
2013-05-06 03:11:00,45.0,43.4,29.96,NNW,334,0.0,0.0,94,0.00,,,0.00,0,Wunderground v.1.15,2013-05-06 08:11:00,
2013-05-06 03:16:00,45.0,43.4,29.96,NNW,334,0.0,0.0,94,0.00,,,0.00,0,Wunderground v.1.15,2013-05-06 08:16:00,
2013-05-06 03:21:00,45.1,43.5,29.96,NNW,333,0.0,1.0,94,0.00,,,0.00,0,Wunderground v.1.15,2013-05-06 08:21:00,
2013-05-06 03:26:00,45.1,43.2,29.96,NNW,333,0.0,1.0,93,0.00,,,0.00,0,Wunderground v.1.15,2013-05-06 08:26:00,
2013-05-06 03:32:00,45.1,43.2,29.96,NNW,332,0.0,0.0,93,0.00,,,0.00,0,Wunderground v.1.15,2013-05-06 08:32:00,
2013-05-06 03:37:00,45.1,43.2,29.96,WSW,252,0.0,0.0,93,0.00,,,0.00,0,Wunderground v.1.15,2013-05-06 08:37:00,
2013-05-06 03:43:00,45.1,43.2,29.96,WSW,252,0.0,0.0,93,0.00,,,0.00,0,Wunderground v.1.15,2013-05-06 08:43:00,
2013-05-06 03:48:00,45.2,43.3,29.96,WSW,246,0.0,1.0,93,0.00,,,0.00,0,Wunderground v.1.15,2013-05-06 08:48:00,
2013-05-06 03:53:00,45.1,42.9,29.96,WSW,246,0.0,0.0,92,0.00,,,0.00,0,Wunderground v.1.15,2013-05-06 08:53:00,
2013-05-06 03:58:00,45.0,42.8,29.96,WSW,246,0.0,0.0,92,0.00,,,0.00,0,Wunderground v.1.15,2013-05-06 08:58:00,
2013-05-06 04:03:00,45.0,42.8,29.97,WSW,246,0.0,0.0,92,0.00,,,0.00,0,Wunderground v.1.15,2013-05-06 09:03:00,
2013-05-06 04:09:00,45.0,42.8,29.97,WSW,246,0.0,0.0,92,0.00,,,0.00,0,Wunderground v.1.15,2013-05-06 09:09:00,
2013-05-06 04:14:00,45.1,42.9,29.97,WSW,245,0.0,1.0,92,0.00,,,0.00,0,Wunderground v.1.15,2013-05-06 09:14:00,
2013-05-06 04:19:00,45.2,43.0,29.97,WSW,245,0.0,1.0,92,0.00,,,0.00,0,Wunderground v.1.15,2013-05-06 09:19:00,
2013-05-06 04:24:00,45.4,42.9,29.97,WSW,247,0.0,2.0,91,0.00,,,0.00,0,Wunderground v.1.15,2013-05-06 09:24:00,
2013-05-06 04:30:00,45.6,43.1,29.97,WSW,253,0.0,0.0,91,0.00,,,0.00,0,Wunderground v.1.15,2013-05-06 09:30:00,
2013-05-06 04:35:00,45.8,43.3,29.97,WSW,254,0.0,3.0,91,0.00,,,0.00,0,Wunderground v.1.15,2013-05-06 09:35:00,
2013-05-06 04:40:00,45.9,43.4,29.97,WSW,256,0.0,0.0,91,0.00,,,0.00,0,Wunderground v.1.15,2013-05-06 09:40:00,
2013-05-06 04:45:00,46.1,43.3,29.97,WSW,256,0.0,6.0,90,0.00,,,0.00,0,Wunderground v.1.15,2013-05-06 09:45:00,
2013-05-06 04:51:00,46.3,43.2,29.97,WSW,255,1.0,1.0,89,0.00,,,0.00,0,Wunderground v.1.15,2013-05-06 09:51:00,
2013-05-06 04:57:00,46.5,43.4,29.97,WSW,240,1.0,3.0,89,0.00,,,0.00,0,Wunderground v.1.15,2013-05-06 09:57:00,
2013-05-06 05:02:00,46.6,43.5,29.97,WSW,244,1.0,4.0,89,0.00,,,0.00,0,Wunderground v.1.15,2013-05-06 10:02:00,
2013-05-06 05:07:00,46.6,43.5,29.97,WSW,250,0.0,4.0,89,0.00,,,0.00,0,Wunderground v.1.15,2013-05-06 10:07:00,
2013-05-06 05:13:00,46.6,43.2,29.97,West,265,0.0,0.0,88,0.00,,,0.00,0,Wunderground v.1.15,2013-05-06 10:13:00,
2013-05-06 05:19:00,46.5,43.1,29.97,West,264,0.0,0.0,88,0.00,,,0.00,0,Wunderground v.1.15,2013-05-06 10:19:00,
2013-05-06 05:24:00,46.5,43.4,29.97,West,264,0.0,0.0,89,0.00,,,0.00,0,Wunderground v.1.15,2013-05-06 10:24:00,
2013-05-06 05:29:00,46.4,43.3,29.97,West,265,0.0,3.0,89,0.00,,,0.00,0,Wunderground v.1.15,2013-05-06 10:29:00,
2013-05-06 05:34:00,46.4,43.3,29.97,WSW,237,1.0,1.0,89,0.00,,,0.00,0,Wunderground v.1.15,2013-05-06 10:34:00,
2013-05-06 05:39:00,46.3,43.2,29.97,WSW,238,0.0,1.0,89,0.00,,,0.00,0,Wunderground v.1.15,2013-05-06 10:39:00,
2013-05-06 05:45:00,46.3,43.2,29.97,WSW,237,0.0,0.0,89,0.00,,,0.00,0,Wunderground v.1.15,2013-05-06 10:45:00,
2013-05-06 05:50:00,46.1,43.0,29.97,WSW,237,0.0,0.0,89,0.00,,,0.00,0,Wunderground v.1.15,2013-05-06 10:50:00,
2013-05-06 05:56:00,46.0,43.2,29.98,WSW,238,0.0,0.0,90,0.00,,,0.00,0,Wunderground v.1.15,2013-05-06 10:56:00,
2013-05-06 06:01:00,45.9,43.1,29.98,WSW,253,1.0,1.0,90,0.00,,,0.00,0,Wunderground v.1.15,2013-05-06 11:01:00,
2013-05-06 06:07:00,45.8,43.0,29.98,WSW,248,0.0,3.0,90,0.00,,,0.00,0,Wunderground v.1.15,2013-05-06 11:07:00,
2013-05-06 06:12:00,45.7,42.9,29.98,WSW,239,0.0,0.0,90,0.00,,,0.00,0,Wunderground v.1.15,2013-05-06 11:12:00,
2013-05-06 06:17:00,45.6,42.8,29.98,WSW,240,0.0,0.0,90,0.00,,,0.00,5,Wunderground v.1.15,2013-05-06 11:17:00,
2013-05-06 06:22:00,45.6,42.8,29.99,WSW,253,0.0,2.0,90,0.00,,,0.00,7,Wunderground v.1.15,2013-05-06 11:22:00,
2013-05-06 06:28:00,45.6,42.8,29.99,WSW,253,1.0,4.0,90,0.00,,,0.00,11,Wunderground v.1.15,2013-05-06 11:28:00,
2013-05-06 06:33:00,45.6,42.8,29.99,WSW,252,0.0,1.0,90,0.00,,,0.00,14,Wunderground v.1.15,2013-05-06 11:33:00,
2013-05-06 06:38:00,45.6,42.8,29.99,WSW,241,0.0,2.0,90,0.00,,,0.00,16,Wunderground v.1.15,2013-05-06 11:38:00,
2013-05-06 06:43:00,45.7,42.9,29.99,West,274,0.0,0.0,90,0.00,,,0.00,21,Wunderground v.1.15,2013-05-06 11:43:00,
2013-05-06 06:49:00,45.9,43.1,30.00,West,269,0.0,1.0,90,0.00,,,0.00,21,Wunderground v.1.15,2013-05-06 11:49:00,
2013-05-06 06:55:00,46.0,43.2,30.00,West,267,0.0,0.0,90,0.00,,,0.00,30,Wunderground v.1.15,2013-05-06 11:55:00,
2013-05-06 07:00:00,46.2,43.4,30.00,West,263,0.0,0.0,90,0.00,,,0.00,32,Wunderground v.1.15,2013-05-06 12:00:00,
2013-05-06 07:05:00,46.5,43.7,30.00,West,278,0.0,2.0,90,0.00,,,0.00,28,Wunderground v.1.15,2013-05-06 12:05:00,
2013-05-06 07:11:00,46.8,44.0,30.00,WNW,285,1.0,1.0,90,0.00,,,0.00,35,Wunderground v.1.15,2013-05-06 12:11:00,
2013-05-06 07:16:00,47.1,44.0,30.00,WNW,283,1.0,1.0,89,0.00,,,0.00,127,Wunderground v.1.15,2013-05-06 12:16:00,
2013-05-06 07:21:00,47.4,44.3,30.00,West,267,0.0,0.0,89,0.00,,,0.00,155,Wunderground v.1.15,2013-05-06 12:21:00,
2013-05-06 07:26:00,47.9,44.5,30.00,WSW,242,0.0,0.0,88,0.00,,,0.00,169,Wunderground v.1.15,2013-05-06 12:26:00,
2013-05-06 07:31:00,48.4,45.0,30.00,WSW,250,1.0,1.0,88,0.00,,,0.00,186,Wunderground v.1.15,2013-05-06 12:31:00,
2013-05-06 07:37:00,49.0,45.3,30.00,WSW,256,1.0,1.0,87,0.00,,,0.00,206,Wunderground v.1.15,2013-05-06 12:37:00,
2013-05-06 07:42:00,49.4,45.4,30.00,West,270,1.0,4.0,86,0.00,,,0.00,223,Wunderground v.1.15,2013-05-06 12:42:00,
2013-05-06 07:47:00,49.9,45.9,30.00,WSW,258,1.0,4.0,86,0.00,,,0.00,241,Wunderground v.1.15,2013-05-06 12:47:00,
2013-05-06 07:52:00,50.4,46.1,30.00,WSW,238,1.0,2.0,85,0.00,,,0.00,260,Wunderground v.1.15,2013-05-06 12:52:00,
2013-05-06 07:57:00,50.9,46.2,30.00,WSW,239,1.0,2.0,84,0.00,,,0.00,278,Wunderground v.1.15,2013-05-06 12:57:00,
2013-05-06 08:03:00,51.5,46.5,30.00,WSW,258,1.0,2.0,83,0.00,,,0.00,299,Wunderground v.1.15,2013-05-06 13:03:00,
2013-05-06 08:08:00,51.9,46.9,30.00,WSW,250,1.0,7.0,83,0.00,,,0.00,316,Wunderground v.1.15,2013-05-06 13:08:00,
2013-05-06 08:13:00,52.4,47.1,30.00,WNW,288,1.0,2.0,82,0.00,,,0.00,334,Wunderground v.1.15,2013-05-06 13:13:00,
2013-05-06 08:18:00,52.7,47.0,30.00,WSW,249,2.0,6.0,81,0.00,,,0.00,352,Wunderground v.1.15,2013-05-06 13:18:00,
2013-05-06 08:23:00,53.0,47.3,30.01,West,265,3.0,6.0,81,0.00,,,0.00,366,Wunderground v.1.15,2013-05-06 13:23:00,
2013-05-06 08:28:00,53.4,48.0,30.01,West,269,1.0,6.0,82,0.00,,,0.00,381,Wunderground v.1.15,2013-05-06 13:28:00,
2013-05-06 08:34:00,53.9,48.2,30.01,West,273,0.0,1.0,81,0.00,,,0.00,403,Wunderground v.1.15,2013-05-06 13:34:00,
2013-05-06 08:39:00,54.2,48.5,30.01,West,281,1.0,3.0,81,0.00,,,0.00,420,Wunderground v.1.15,2013-05-06 13:39:00,
2013-05-06 08:45:00,54.7,48.6,30.01,WNW,292,3.0,6.0,80,0.00,,,0.00,439,Wunderground v.1.15,2013-05-06 13:45:00,
2013-05-06 08:50:00,55.3,49.2,30.01,NW,320,2.0,2.0,80,0.00,,,0.00,455,Wunderground v.1.15,2013-05-06 13:50:00,
2013-05-06 08:55:00,55.9,49.8,30.01,West,267,0.0,2.0,80,0.00,,,0.00,471,Wunderground v.1.15,2013-05-06 13:55:00,
2013-05-06 09:00:00,56.3,49.2,30.01,West,279,1.0,1.0,77,0.00,,,0.00,490,Wunderground v.1.15,2013-05-06 14:00:00,
2013-05-06 09:06:00,56.5,49.4,30.01,West,260,2.0,5.0,77,0.00,,,0.00,512,Wunderground v.1.15,2013-05-06 14:06:00,
2013-05-06 09:11:00,57.1,49.6,30.01,WSW,257,2.0,4.0,76,0.00,,,0.00,526,Wunderground v.1.15,2013-05-06 14:11:00,
2013-05-06 09:17:00,57.6,49.7,30.01,WNW,284,2.0,7.0,75,0.00,,,0.00,547,Wunderground v.1.15,2013-05-06 14:17:00,
2013-05-06 09:22:00,58.1,50.6,30.01,WSW,254,1.0,2.0,76,0.00,,,0.00,559,Wunderground v.1.15,2013-05-06 14:22:00,
2013-05-06 09:27:00,58.6,50.0,30.01,WNW,303,1.0,3.0,73,0.00,,,0.00,575,Wunderground v.1.15,2013-05-06 14:27:00,
2013-05-06 09:32:00,59.0,50.0,30.01,NW,323,2.0,2.0,72,0.00,,,0.00,592,Wunderground v.1.15,2013-05-06 14:32:00,
2013-05-06 09:38:00,59.3,50.3,30.01,WSW,250,2.0,5.0,72,0.00,,,0.00,613,Wunderground v.1.15,2013-05-06 14:38:00,
2013-05-06 09:43:00,59.7,50.7,30.01,NW,307,3.0,8.0,72,0.00,,,0.00,629,Wunderground v.1.15,2013-05-06 14:43:00,
2013-05-06 09:48:00,60.2,50.8,30.00,West,266,2.0,8.0,71,0.00,,,0.00,643,Wunderground v.1.15,2013-05-06 14:48:00,
2013-05-06 09:53:00,60.7,50.5,30.01,WNW,294,1.0,8.0,69,0.00,,,0.00,659,Wunderground v.1.15,2013-05-06 14:53:00,
2013-05-06 09:58:00,61.1,49.7,30.01,WNW,286,2.0,8.0,66,0.00,,,0.00,677,Wunderground v.1.15,2013-05-06 14:58:00,
2013-05-06 10:04:00,61.0,50.0,30.01,WNW,290,3.0,10.0,67,0.00,,,0.00,689,Wunderground v.1.15,2013-05-06 15:04:00,
2013-05-06 10:09:00,61.3,50.6,30.01,WSW,258,2.0,10.0,68,0.00,,,0.00,701,Wunderground v.1.15,2013-05-06 15:09:00,
2013-05-06 10:14:00,61.8,50.3,30.01,West,273,2.0,7.0,66,0.00,,,0.00,721,Wunderground v.1.15,2013-05-06 15:14:00,
2013-05-06 10:19:00,62.1,50.2,30.01,SW,232,3.0,13.0,65,0.00,,,0.00,737,Wunderground v.1.15,2013-05-06 15:19:00,
2013-05-06 10:24:00,62.5,49.3,30.00,West,279,2.0,11.0,62,0.00,,,0.00,751,Wunderground v.1.15,2013-05-06 15:24:00,
2013-05-06 10:29:00,62.5,49.7,30.00,WSW,246,3.0,14.0,63,0.00,,,0.00,766,Wunderground v.1.15,2013-05-06 15:29:00,
2013-05-06 10:35:00,62.6,49.4,30.00,West,281,4.0,5.0,62,0.00,,,0.00,782,Wunderground v.1.15,2013-05-06 15:35:00,
2013-05-06 10:40:00,62.7,49.9,30.00,SW,236,3.0,3.0,63,0.00,,,0.00,795,Wunderground v.1.15,2013-05-06 15:40:00,
2013-05-06 10:46:00,63.1,49.4,30.00,West,274,3.0,11.0,61,0.00,,,0.00,814,Wunderground v.1.15,2013-05-06 15:46:00,
2013-05-06 10:51:00,63.4,50.6,30.00,SW,215,3.0,3.0,63,0.00,,,0.00,828,Wunderground v.1.15,2013-05-06 15:51:00,
2013-05-06 10:56:00,64.0,49.8,30.00,West,270,3.0,7.0,60,0.00,,,0.00,842,Wunderground v.1.15,2013-05-06 15:56:00,
2013-05-06 11:02:00,64.1,49.0,30.00,WNW,288,2.0,7.0,58,0.00,,,0.00,858,Wunderground v.1.15,2013-05-06 16:02:00,
2013-05-06 11:07:00,64.0,48.5,30.00,North,1,3.0,7.0,57,0.00,,,0.00,870,Wunderground v.1.15,2013-05-06 16:07:00,
2013-05-06 11:12:00,64.0,49.4,30.00,WSW,247,4.0,4.0,59,0.00,,,0.00,877,Wunderground v.1.15,2013-05-06 16:12:00,
2013-05-06 11:18:00,64.9,50.7,29.99,WSW,242,2.0,4.0,60,0.00,,,0.00,889,Wunderground v.1.15,2013-05-06 16:18:00,
2013-05-06 11:23:00,65.1,50.4,29.99,NW,324,2.0,11.0,59,0.00,,,0.00,898,Wunderground v.1.15,2013-05-06 16:23:00,
2013-05-06 11:28:00,64.9,49.3,29.99,West,263,4.0,11.0,57,0.00,,,0.00,664,Wunderground v.1.15,2013-05-06 16:28:00,
2013-05-06 11:33:00,64.8,48.7,29.99,NW,317,5.0,8.0,56,0.00,,,0.00,916,Wunderground v.1.15,2013-05-06 16:33:00,
2013-05-06 11:39:00,65.0,50.8,29.99,SSW,203,4.0,9.0,60,0.00,,,0.00,925,Wunderground v.1.15,2013-05-06 16:39:00,
2013-05-06 11:44:00,65.2,49.6,29.99,WNW,302,4.0,12.0,57,0.00,,,0.00,932,Wunderground v.1.15,2013-05-06 16:44:00,
2013-05-06 11:49:00,65.2,50.0,29.99,West,277,4.0,12.0,58,0.00,,,0.00,940,Wunderground v.1.15,2013-05-06 16:49:00,
2013-05-06 11:54:00,65.5,50.3,29.99,NW,314,3.0,10.0,58,0.00,,,0.00,949,Wunderground v.1.15,2013-05-06 16:54:00,
2013-05-06 11:59:00,65.4,50.2,29.98,West,280,3.0,10.0,58,0.00,,,0.00,963,Wunderground v.1.15,2013-05-06 16:59:00,
2013-05-06 12:04:00,65.8,51.1,29.98,West,267,3.0,9.0,59,0.00,,,0.00,960,Wunderground v.1.15,2013-05-06 17:04:00,
2013-05-06 12:10:00,66.1,51.4,29.98,WNW,298,3.0,3.0,59,0.00,,,0.00,969,Wunderground v.1.15,2013-05-06 17:10:00,
2013-05-06 12:15:00,66.3,51.5,29.98,South,178,3.0,7.0,59,0.00,,,0.00,986,Wunderground v.1.15,2013-05-06 17:15:00,
2013-05-06 12:20:00,66.5,51.7,29.97,WNW,292,3.0,3.0,59,0.00,,,0.00,972,Wunderground v.1.15,2013-05-06 17:20:00,
2013-05-06 12:26:00,66.8,50.6,29.97,West,267,3.0,16.0,56,0.00,,,0.00,1021,Wunderground v.1.15,2013-05-06 17:26:00,
2013-05-06 12:31:00,66.6,51.4,29.97,South,188,3.0,9.0,58,0.00,,,0.00,1028,Wunderground v.1.15,2013-05-06 17:31:00,
2013-05-06 12:36:00,66.9,51.2,29.97,West,277,4.0,9.0,57,0.00,,,0.00,1035,Wunderground v.1.15,2013-05-06 17:36:00,
2013-05-06 12:41:00,67.2,51.4,29.97,West,267,3.0,6.0,57,0.00,,,0.00,1009,Wunderground v.1.15,2013-05-06 17:41:00,
2013-05-06 12:47:00,67.5,52.2,29.97,West,270,2.0,9.0,58,0.00,,,0.00,1025,Wunderground v.1.15,2013-05-06 17:47:00,
2013-05-06 12:52:00,67.6,51.3,29.97,WNW,302,2.0,10.0,56,0.00,,,0.00,998,Wunderground v.1.15,2013-05-06 17:52:00,
2013-05-06 12:57:00,67.3,51.1,29.96,West,260,2.0,10.0,56,0.00,,,0.00,932,Wunderground v.1.15,2013-05-06 17:57:00,
2013-05-06 13:03:00,67.4,52.1,29.96,WNW,300,2.0,7.0,58,0.00,,,0.00,1013,Wunderground v.1.15,2013-05-06 18:03:00,
2013-05-06 13:08:00,67.4,51.2,29.96,WNW,291,4.0,8.0,56,0.00,,,0.00,986,Wunderground v.1.15,2013-05-06 18:08:00,
2013-05-06 13:13:00,67.7,51.9,29.96,NW,314,3.0,11.0,57,0.00,,,0.00,977,Wunderground v.1.15,2013-05-06 18:13:00,
2013-05-06 13:18:00,67.9,51.6,29.95,SW,235,1.0,11.0,56,0.00,,,0.00,998,Wunderground v.1.15,2013-05-06 18:18:00,
2013-05-06 13:24:00,68.5,51.7,29.96,NW,305,2.0,6.0,55,0.00,,,0.00,990,Wunderground v.1.15,2013-05-06 18:24:00,
2013-05-06 13:29:00,68.8,52.0,29.95,WSW,247,2.0,6.0,55,0.00,,,0.00,988,Wunderground v.1.15,2013-05-06 18:29:00,
2013-05-06 13:34:00,68.8,51.5,29.95,WSW,250,1.0,6.0,54,0.00,,,0.00,981,Wunderground v.1.15,2013-05-06 18:34:00,
2013-05-06 13:39:00,68.5,51.2,29.95,West,270,3.0,12.0,54,0.00,,,0.00,677,Wunderground v.1.15,2013-05-06 18:39:00,
2013-05-06 14:00:00,69.1,51.8,29.95,SSW,211,4.0,4.0,54,0.00,,,0.00,958,Wunderground v.1.15,2013-05-06 19:00:00,
2013-05-06 14:05:00,69.2,51.3,29.95,NW,316,4.0,13.0,53,0.00,,,0.00,944,Wunderground v.1.15,2013-05-06 19:05:00,
2013-05-06 14:10:00,69.4,51.5,29.94,NNW,344,3.0,3.0,53,0.00,,,0.00,960,Wunderground v.1.15,2013-05-06 19:10:00,
2013-05-06 14:15:00,69.7,51.3,29.94,West,260,2.0,3.0,52,0.00,,,0.00,953,Wunderground v.1.15,2013-05-06 19:15:00,
2013-05-06 14:21:00,69.7,52.8,29.94,WSW,244,3.0,3.0,55,0.00,,,0.00,937,Wunderground v.1.15,2013-05-06 19:21:00,
2013-05-06 14:26:00,69.9,52.0,29.94,NW,307,3.0,7.0,53,0.00,,,0.00,925,Wunderground v.1.15,2013-05-06 19:26:00,
2013-05-06 14:31:00,69.8,51.9,29.93,West,267,4.0,6.0,53,0.00,,,0.00,976,Wunderground v.1.15,2013-05-06 19:31:00,
2013-05-06 14:36:00,69.9,51.5,29.93,WSW,254,5.0,12.0,52,0.00,,,0.00,928,Wunderground v.1.15,2013-05-06 19:36:00,
2013-05-06 14:41:00,69.9,53.5,29.93,WNW,294,5.0,5.0,56,0.00,,,0.00,919,Wunderground v.1.15,2013-05-06 19:41:00,
2013-05-06 15:00:00,70.6,53.1,29.92,WSW,253,3.0,6.0,54,0.00,,,0.00,928,Wunderground v.1.15,2013-05-06 20:00:00,
2013-05-06 15:13:00,70.5,52.5,29.92,West,273,4.0,14.0,53,0.00,,,0.00,1009,Wunderground v.1.15,2013-05-06 20:13:00,
2013-05-06 15:26:00,70.8,53.3,29.91,West,274,4.0,11.0,54,0.00,,,0.00,294,Wunderground v.1.15,2013-05-06 20:26:00,
2013-05-06 15:33:00,70.3,51.8,29.92,NW,308,6.0,14.0,52,0.00,,,0.00,294,Wunderground v.1.15,2013-05-06 20:33:00,
2013-05-06 16:22:00,69.2,52.8,29.91,West,267,1.0,3.0,56,0.00,,,0.00,251,Wunderground v.1.15,2013-05-06 21:22:00,
2013-05-06 16:27:00,69.0,53.1,29.91,NW,325,3.0,7.0,57,0.00,,,0.00,248,Wunderground v.1.15,2013-05-06 21:27:00,
2013-05-06 16:32:00,69.2,53.3,29.91,WNW,291,3.0,9.0,57,0.00,,,0.00,243,Wunderground v.1.15,2013-05-06 21:32:00,
2013-05-06 16:38:00,69.1,53.2,29.91,NW,323,4.0,9.0,57,0.00,,,0.00,246,Wunderground v.1.15,2013-05-06 21:38:00,
2013-05-06 16:43:00,69.0,53.6,29.91,NNW,330,3.0,4.0,58,0.00,,,0.00,262,Wunderground v.1.15,2013-05-06 21:43:00,
2013-05-06 16:48:00,68.9,53.5,29.91,West,279,2.0,7.0,58,0.00,,,0.00,214,Wunderground v.1.15,2013-05-06 21:48:00,
2013-05-06 16:53:00,68.8,53.4,29.91,WNW,298,2.0,7.0,58,0.00,,,0.00,230,Wunderground v.1.15,2013-05-06 21:53:00,
2013-05-06 16:58:00,68.7,53.3,29.92,WNW,293,3.0,7.0,58,0.00,,,0.00,220,Wunderground v.1.15,2013-05-06 21:58:00,
2013-05-06 17:04:00,68.8,53.4,29.91,NW,311,3.0,7.0,58,0.00,,,0.00,264,Wunderground v.1.15,2013-05-06 22:04:00,
2013-05-06 17:09:00,69.0,54.1,29.91,NNW,333,2.0,7.0,59,0.00,,,0.00,309,Wunderground v.1.15,2013-05-06 22:09:00,
2013-05-06 17:14:00,69.5,54.1,29.92,NW,309,2.0,6.0,58,0.00,,,0.00,571,Wunderground v.1.15,2013-05-06 22:14:00,
2013-05-06 17:19:00,69.9,54.0,29.92,NW,317,2.0,7.0,57,0.00,,,0.00,487,Wunderground v.1.15,2013-05-06 22:19:00,
2013-05-06 17:25:00,70.0,54.1,29.92,WNW,292,2.0,5.0,57,0.00,,,0.00,462,Wunderground v.1.15,2013-05-06 22:25:00,
2013-05-06 17:30:00,69.8,54.4,29.91,WNW,290,2.0,2.0,58,0.00,,,0.00,418,Wunderground v.1.15,2013-05-06 22:30:00,
2013-05-06 17:39:00,69.9,54.4,29.91,WNW,291,1.0,8.0,58,0.00,,,0.00,378,Wunderground v.1.15,2013-05-06 22:39:00,
2013-05-06 17:44:00,69.9,54.0,29.91,WNW,285,1.0,9.0,57,0.00,,,0.00,93,Wunderground v.1.15,2013-05-06 22:44:00,
2013-05-06 17:50:00,69.4,53.5,29.91,WNW,303,3.0,3.0,57,0.00,,,0.00,162,Wunderground v.1.15,2013-05-06 22:50:00,
2013-05-06 17:57:00,69.6,54.2,29.91,WNW,282,2.0,5.0,58,0.00,,,0.00,269,Wunderground v.1.15,2013-05-06 22:57:00,
2013-05-06 18:03:00,69.7,54.3,29.91,WNW,292,2.0,4.0,58,0.00,,,0.00,318,Wunderground v.1.15,2013-05-06 23:03:00,
2013-05-06 18:09:00,69.7,53.8,29.91,West,277,3.0,4.0,57,0.00,,,0.00,123,Wunderground v.1.15,2013-05-06 23:09:00,
2013-05-06 18:14:00,69.4,54.0,29.91,WNW,287,2.0,3.0,58,0.00,,,0.00,125,Wunderground v.1.15,2013-05-06 23:14:00,
2013-05-06 18:31:00,68.5,54.1,29.92,NW,320,1.0,1.0,60,0.00,,,0.00,67,Wunderground v.1.15,2013-05-06 23:31:00,
2013-05-06 18:53:00,68.0,54.5,29.92,NW,314,0.0,0.0,62,0.00,,,0.00,81,Wunderground v.1.15,2013-05-06 23:53:00,
2013-05-06 18:58:00,68.0,54.5,29.92,NW,314,0.0,0.0,62,0.00,,,0.00,60,Wunderground v.1.15,2013-05-06 23:58:00,
2013-05-06 19:03:00,67.9,54.8,29.92,NW,314,0.0,0.0,63,0.00,,,0.00,25,Wunderground v.1.15,2013-05-07 00:03:00,
2013-05-06 19:08:00,67.7,55.1,29.92,NW,314,0.0,0.0,64,0.00,,,0.00,28,Wunderground v.1.15,2013-05-07 00:08:00,
2013-05-06 19:14:00,67.5,54.9,29.92,NW,314,0.0,0.0,64,0.00,,,0.00,32,Wunderground v.1.15,2013-05-07 00:14:00,
2013-05-06 19:19:00,67.3,55.1,29.92,NW,314,0.0,1.0,65,0.00,,,0.00,25,Wunderground v.1.15,2013-05-07 00:19:00,
2013-05-06 19:24:00,67.1,55.4,29.92,NW,314,0.0,0.0,66,0.00,,,0.00,19,Wunderground v.1.15,2013-05-07 00:24:00,
2013-05-06 19:29:00,66.9,55.6,29.92,NW,314,0.0,0.0,67,0.00,,,0.00,12,Wunderground v.1.15,2013-05-07 00:29:00,
2013-05-06 19:35:00,66.6,55.3,29.92,NW,314,0.0,0.0,67,0.00,,,0.00,9,Wunderground v.1.15,2013-05-07 00:35:00,
2013-05-06 19:40:00,66.1,55.2,29.93,NW,314,0.0,0.0,68,0.00,,,0.00,5,Wunderground v.1.15,2013-05-07 00:40:00,
2013-05-06 19:45:00,65.6,55.2,29.93,NW,314,0.0,0.0,69,0.00,,,0.00,0,Wunderground v.1.15,2013-05-07 00:45:00,
2013-05-06 19:50:00,65.2,55.2,29.93,NW,314,0.0,0.0,70,0.00,,,0.00,0,Wunderground v.1.15,2013-05-07 00:50:00,
2013-05-06 19:56:00,64.8,55.6,29.93,NW,314,0.0,0.0,72,0.00,,,0.00,0,Wunderground v.1.15,2013-05-07 00:56:00,
2013-05-06 20:01:00,64.3,55.5,29.93,NW,314,0.0,0.0,73,0.00,,,0.00,0,Wunderground v.1.15,2013-05-07 01:01:00,
2013-05-06 20:06:00,63.9,55.8,29.93,NW,314,0.0,0.0,75,0.00,,,0.00,0,Wunderground v.1.15,2013-05-07 01:06:00,
2013-05-06 20:12:00,63.4,55.7,29.93,NW,314,0.0,0.0,76,0.00,,,0.00,0,Wunderground v.1.15,2013-05-07 01:12:00,
2013-05-06 20:17:00,62.9,55.9,29.94,NW,314,0.0,0.0,78,0.00,,,0.00,0,Wunderground v.1.15,2013-05-07 01:17:00,
2013-05-06 20:22:00,62.5,55.5,29.94,NW,314,0.0,0.0,78,0.00,,,0.00,0,Wunderground v.1.15,2013-05-07 01:22:00,
2013-05-06 20:53:00,60.5,55.0,29.95,NW,314,0.0,0.0,82,0.00,,,0.00,0,Wunderground v.1.15,2013-05-07 01:53:00,
2013-05-06 21:00:00,60.2,55.0,29.95,NW,314,0.0,0.0,83,0.00,,,0.00,0,Wunderground v.1.15,2013-05-07 02:00:00,
2013-05-06 21:06:00,60.0,54.8,29.95,NW,314,0.0,0.0,83,0.00,,,0.00,0,Wunderground v.1.15,2013-05-07 02:06:00,
2013-05-06 21:11:00,59.9,55.1,29.96,NW,314,0.0,0.0,84,0.00,,,0.00,0,Wunderground v.1.15,2013-05-07 02:11:00,
2013-05-06 21:16:00,59.6,55.1,29.96,NW,314,0.0,0.0,85,0.00,,,0.00,0,Wunderground v.1.15,2013-05-07 02:16:00,
2013-05-06 21:22:00,59.4,55.2,29.97,NW,314,0.0,0.0,86,0.00,,,0.00,0,Wunderground v.1.15,2013-05-07 02:22:00,
2013-05-06 21:27:00,59.1,54.9,29.96,NW,314,0.0,0.0,86,0.00,,,0.00,0,Wunderground v.1.15,2013-05-07 02:27:00,
2013-05-06 21:32:00,59.0,54.8,29.97,NW,314,0.0,0.0,86,0.00,,,0.00,0,Wunderground v.1.15,2013-05-07 02:32:00,
2013-05-06 21:37:00,59.0,54.8,29.97,NW,314,0.0,0.0,86,0.00,,,0.00,0,Wunderground v.1.15,2013-05-07 02:37:00,
2013-05-06 21:43:00,59.0,55.1,29.97,NW,314,0.0,0.0,87,0.00,,,0.00,0,Wunderground v.1.15,2013-05-07 02:43:00,
2013-05-06 21:48:00,58.8,54.9,29.97,NW,314,0.0,0.0,87,0.00,,,0.00,0,Wunderground v.1.15,2013-05-07 02:48:00,
2013-05-06 21:53:00,58.6,54.7,29.97,NW,314,0.0,0.0,87,0.00,,,0.00,0,Wunderground v.1.15,2013-05-07 02:53:00,
2013-05-06 21:58:00,58.5,55.0,29.97,NW,314,0.0,0.0,88,0.00,,,0.00,0,Wunderground v.1.15,2013-05-07 02:58:00,
2013-05-06 22:03:00,58.5,55.0,29.97,NW,314,0.0,0.0,88,0.00,,,0.00,0,Wunderground v.1.15,2013-05-07 03:03:00,
2013-05-06 22:09:00,58.4,54.9,29.97,NW,314,0.0,0.0,88,0.00,,,0.00,0,Wunderground v.1.15,2013-05-07 03:09:00,
2013-05-06 22:14:00,58.3,54.8,29.98,NW,314,0.0,0.0,88,0.00,,,0.00,0,Wunderground v.1.15,2013-05-07 03:14:00,
2013-05-06 22:19:00,58.2,54.7,29.98,NW,314,0.0,0.0,88,0.00,,,0.00,0,Wunderground v.1.15,2013-05-07 03:19:00,
2013-05-06 22:24:00,58.1,54.6,29.98,NW,314,0.0,0.0,88,0.00,,,0.00,0,Wunderground v.1.15,2013-05-07 03:24:00,
2013-05-06 22:29:00,58.0,54.5,29.98,NW,314,0.0,0.0,88,0.00,,,0.00,0,Wunderground v.1.15,2013-05-07 03:29:00,
2013-05-06 22:35:00,58.0,54.5,29.98,NW,314,0.0,0.0,88,0.00,,,0.00,0,Wunderground v.1.15,2013-05-07 03:35:00,
2013-05-06 22:40:00,57.9,54.4,29.98,NW,314,0.0,0.0,88,0.00,,,0.00,0,Wunderground v.1.15,2013-05-07 03:40:00,
2013-05-06 22:46:00,58.0,54.5,29.98,NW,314,0.0,0.0,88,0.00,,,0.00,0,Wunderground v.1.15,2013-05-07 03:46:00,
2013-05-06 22:51:00,58.1,54.6,29.98,NW,314,0.0,0.0,88,0.00,,,0.00,0,Wunderground v.1.15,2013-05-07 03:51:00,
2013-05-06 22:56:00,58.1,54.6,29.98,NW,314,0.0,0.0,88,0.00,,,0.00,0,Wunderground v.1.15,2013-05-07 03:56:00,
2013-05-06 23:01:00,58.2,54.7,29.98,NW,314,0.0,0.0,88,0.00,,,0.00,0,Wunderground v.1.15,2013-05-07 04:01:00,
2013-05-06 23:02:00,58.2,54.7,29.98,NW,314,0.0,0.0,88,0.00,,,0.00,0,Wunderground v.1.15,2013-05-07 04:02:00,
2013-05-06 23:03:00,58.2,54.7,29.98,NW,314,0.0,0.0,88,0.00,,,0.00,0,Wunderground v.1.15,2013-05-07 04:03:00,
2013-05-06 23:04:00,58.2,55.0,29.98,NW,314,0.0,0.0,89,0.00,,,0.00,0,Wunderground v.1.15,2013-05-07 04:04:00,
2013-05-06 23:06:00,58.2,55.0,29.98,NW,314,0.0,0.0,89,0.00,,,0.00,0,Wunderground v.1.15,2013-05-07 04:06:00,
2013-05-06 23:11:00,58.1,54.6,29.98,NW,314,0.0,0.0,88,0.00,,,0.00,0,Wunderground v.1.15,2013-05-07 04:11:00,
2013-05-06 23:17:00,58.3,54.8,29.98,NW,316,0.0,0.0,88,0.00,,,0.00,0,Wunderground v.1.15,2013-05-07 04:17:00,
2013-05-06 23:22:00,58.5,55.0,29.98,NW,323,0.0,0.0,88,0.00,,,0.00,0,Wunderground v.1.15,2013-05-07 04:22:00,
2013-05-06 23:27:00,58.6,55.1,29.98,NW,323,0.0,0.0,88,0.00,,,0.00,0,Wunderground v.1.15,2013-05-07 04:27:00,
2013-05-06 23:32:00,58.8,54.9,29.98,NW,323,0.0,0.0,87,0.00,,,0.00,0,Wunderground v.1.15,2013-05-07 04:32:00,
2013-05-06 23:38:00,59.0,55.8,29.98,NW,323,0.0,0.0,89,0.00,,,0.00,0,Wunderground v.1.15,2013-05-07 04:38:00,
2013-05-06 23:43:00,58.9,55.0,29.98,NW,323,0.0,0.0,87,0.00,,,0.00,0,Wunderground v.1.15,2013-05-07 04:43:00,
2013-05-06 23:49:00,58.8,54.9,29.98,NW,323,0.0,0.0,87,0.00,,,0.00,0,Wunderground v.1.15,2013-05-07 04:49:00,
2013-05-06 23:54:00,58.6,54.7,29.98,NW,323,0.0,0.0,87,0.00,,,0.00,0,Wunderground v.1.15,2013-05-07 04:54:00,
2013-05-06 23:59:00,58.4,54.9,29.97,NW,323,0.0,0.0,88,0.00,,,0.00,0,Wunderground v.1.15,2013-05-07 04:59:00,